Timestamp, Local Timestamp, ID, PM25, PM10, Co2, Temperature, Relative Humidity, Monitor ID, O3
2018-04-10T18:04:14Z,04/10/18 14:04,2412344,2.2248,0.8158,1524,17.3,39.0,,0.0
2018-04-10T18:05:47Z,04/10/18 14:05,2412345,2.7404,0.6604,1334,18.4,39.1,,0.0
2018-04-10T18:06:50Z,04/10/18 14:06,2412346,2.359,0.5509,1380,18.9,38.5,,0.0
2018-04-10T18:07:53Z,04/10/18 14:07,2412347,2.2707,0.5227,1375,19.3,38.0,,0.0
2018-04-10T18:08:56Z,04/10/18 14:08,2412348,2.1683,0.4308,1381,19.7,37.6,,0.0
2018-04-10T18:09:59Z,04/10/18 14:09,2412349,2.0059,0.4556,1366,20.1,37.0,,0.0
2018-04-10T18:11:02Z,04/10/18 14:11,2412350,2.0165,0.4026,1421,20.4,36.5,,0.0
2018-04-10T18:12:05Z,04/10/18 14:12,2412351,1.8505,0.3849,1430,20.7,36.2,,0.0
2018-04-10T18:13:08Z,04/10/18 14:13,2412352,1.9211,0.4026,1426,21.0,35.9,,0.0
2018-04-10T18:14:11Z,04/10/18 14:14,2412353,1.9458,0.3531,1422,21.2,35.6,,0.0
2018-04-10T18:15:14Z,04/10/18 14:15,2412354,2.0377,0.2966,1295,21.5,34.4,,0.0
2018-04-10T18:16:17Z,04/10/18 14:16,2412355,2.0271,0.4732,1285,21.7,34.5,,0.0
2018-04-10T18:17:20Z,04/10/18 14:17,2412356,1.9352,0.5191,1382,21.8,34.7,,0.0
2018-04-10T18:18:23Z,04/10/18 14:18,2412357,1.854,0.4803,1475,22.2,34.3,,0.0
2018-04-10T18:20:29Z,04/10/18 14:20,2412358,1.8681,0.4344,1508,22.5,34.0,,0.0
2018-04-10T18:21:33Z,04/10/18 14:21,2412359,1.854,0.4308,1489,22.7,33.9,,0.0
2018-04-10T18:22:36Z,04/10/18 14:22,2412360,1.8364,0.4379,1560,22.8,33.8,,0.0
2018-04-10T18:23:39Z,04/10/18 14:23,2412361,1.8187,0.4344,1599,23.0,33.7,,0.0
2018-04-10T18:24:42Z,04/10/18 14:24,2412362,1.6845,0.3708,1647,23.0,33.4,,0.0
2018-04-10T18:25:45Z,04/10/18 14:25,2412363,1.8187,0.3214,1592,23.2,33.0,,0.0
2018-04-10T18:26:48Z,04/10/18 14:26,2412364,1.6951,0.3249,1600,23.3,33.1,,0.0
2018-04-10T18:27:51Z,04/10/18 14:27,2412365,1.7128,0.3637,1622,23.4,33.0,,0.0
2018-04-10T18:28:54Z,04/10/18 14:28,2412366,1.6669,0.286,1582,23.6,32.9,,0.0
2018-04-10T18:29:57Z,04/10/18 14:29,2412367,1.6139,0.279,1624,23.7,32.6,,0.0
2018-04-10T18:31:00Z,04/10/18 14:31,2412368,1.5362,0.2896,1661,23.8,32.5,,0.0
2018-04-10T18:32:03Z,04/10/18 14:32,2412369,1.568,0.3178,1673,23.8,32.3,,0.0
2018-04-10T18:33:06Z,04/10/18 14:33,2412370,1.4656,0.3072,1655,23.9,31.8,,0.0
2018-04-10T18:34:09Z,04/10/18 14:34,2412371,1.5256,0.3637,1685,24.0,31.8,,0.0
2018-04-10T18:35:12Z,04/10/18 14:35,2412372,1.5962,0.3355,1704,24.1,31.8,,0.0
2018-04-10T18:36:15Z,04/10/18 14:36,2412373,1.4161,0.3072,1715,24.2,31.8,,0.0
2018-04-10T18:37:18Z,04/10/18 14:37,2412374,1.4585,0.332,1702,24.3,31.7,,0.0
2018-04-10T18:38:21Z,04/10/18 14:38,2412375,1.402,0.286,1685,24.3,31.6,,0.0
2018-04-10T18:39:25Z,04/10/18 14:39,2412376,1.3702,0.226,1719,24.4,31.5,,0.0
2018-04-10T18:41:31Z,04/10/18 14:41,2412377,1.3278,0.2331,1680,24.6,31.3,,0.0
2018-04-10T18:42:34Z,04/10/18 14:42,2412378,1.3314,0.1978,1721,24.6,31.2,,0.0
2018-04-10T18:43:37Z,04/10/18 14:43,2412379,1.2184,0.2013,1707,24.7,31.1,,0.0
2018-04-10T18:44:40Z,04/10/18 14:44,2412380,1.2325,0.1836,1741,24.8,31.0,,0.0
2018-04-10T18:45:43Z,04/10/18 14:45,2412381,1.2148,0.1766,1742,24.9,30.9,,0.0
2018-04-10T18:46:46Z,04/10/18 14:46,2412382,1.1724,0.1978,1731,24.9,30.8,,0.0
2018-04-10T18:47:49Z,04/10/18 14:47,2412383,1.1936,0.1589,1710,25.0,30.8,,0.0
2018-04-10T18:48:52Z,04/10/18 14:48,2412384,1.2925,0.2578,1729,25.1,30.6,,0.0
2018-04-10T18:49:55Z,04/10/18 14:49,2412385,1.4408,0.445,1758,25.1,30.4,,0.0
2018-04-10T18:50:58Z,04/10/18 14:50,2412386,1.4408,0.3037,1617,25.1,29.8,,0.0
2018-04-10T18:52:01Z,04/10/18 14:52,2412387,1.4726,0.3072,1560,25.1,29.6,,0.0
2018-04-10T18:53:04Z,04/10/18 14:53,2412388,1.3596,0.2437,1571,25.1,29.4,,0.0
2018-04-10T18:54:07Z,04/10/18 14:54,2412389,1.4408,0.2613,1492,25.1,29.2,,0.0
2018-04-10T18:55:10Z,04/10/18 14:55,2412390,1.3314,0.2401,1498,25.1,29.0,,0.0
2018-04-10T18:56:14Z,04/10/18 14:56,2412391,1.455,0.2931,1475,25.1,28.9,,0.0
2018-04-10T18:57:17Z,04/10/18 14:57,2412392,1.3808,0.2578,1434,25.1,28.8,,0.0
2018-04-10T18:58:20Z,04/10/18 14:58,2412393,1.3172,0.2507,1451,25.1,28.6,,0.0
2018-04-10T18:59:23Z,04/10/18 14:59,2412394,1.3278,0.1907,1401,25.1,28.4,,0.0
2018-04-10T19:01:29Z,04/10/18 15:01,2412395,1.2219,0.1836,1410,25.1,28.2,,0.0
2018-04-10T19:02:32Z,04/10/18 15:02,2412396,1.2501,0.166,1388,25.1,28.1,,0.0
2018-04-10T19:03:35Z,04/10/18 15:03,2412397,1.1795,0.1413,1381,25.1,28.0,,0.0
2018-04-10T19:04:38Z,04/10/18 15:04,2412398,1.1336,0.1483,1401,25.1,27.9,,0.0
2018-04-10T19:05:41Z,04/10/18 15:05,2412399,1.123,0.1307,1345,25.1,27.8,,0.0
2018-04-10T19:06:44Z,04/10/18 15:06,2412400,1.1513,0.1165,1355,25.1,27.7,,0.0
2018-04-10T19:07:47Z,04/10/18 15:07,2412401,1.1159,0.1307,1345,25.1,27.7,,0.0
2018-04-10T19:08:50Z,04/10/18 15:08,2412402,1.2042,0.1271,1339,25.1,27.5,,0.0
2018-04-10T19:09:53Z,04/10/18 15:09,2412403,1.0806,0.1059,1294,25.1,27.4,,0.0
2018-04-10T19:10:56Z,04/10/18 15:10,2412404,1.0771,0.1059,1319,25.1,27.3,,0.0
2018-04-10T19:11:59Z,04/10/18 15:11,2412405,1.0559,0.1024,1285,25.1,27.3,,0.0
2018-04-10T19:13:03Z,04/10/18 15:13,2412406,1.07,0.0953,1279,25.1,27.2,,0.0
2018-04-10T19:14:06Z,04/10/18 15:14,2412407,1.0665,0.1271,1300,25.1,27.1,,0.0
2018-04-10T19:15:09Z,04/10/18 15:15,2412408,0.9853,0.0848,1254,25.1,27.0,,0.0
2018-04-10T19:16:12Z,04/10/18 15:16,2412409,1.0453,0.0777,1279,25.1,27.0,,0.0
2018-04-10T19:17:15Z,04/10/18 15:17,2412410,1.0241,0.0918,1223,25.1,27.0,,0.0
2018-04-10T19:18:18Z,04/10/18 15:18,2412411,0.95,0.0812,1232,25.1,26.9,,0.0
2018-04-10T19:19:21Z,04/10/18 15:19,2412412,0.9923,0.0706,1220,25.1,26.8,,0.0
2018-04-10T19:20:24Z,04/10/18 15:20,2412413,0.9817,0.06,1190,25.1,26.7,,0.0
2018-04-10T19:22:30Z,04/10/18 15:22,2412414,0.9888,0.0565,1198,25.1,26.5,,0.0
2018-04-10T19:23:33Z,04/10/18 15:23,2412415,0.95,0.06,1178,25.1,26.5,,0.0
2018-04-10T19:24:36Z,04/10/18 15:24,2412416,0.9323,0.0565,1151,25.1,26.4,,0.0
2018-04-10T19:25:39Z,04/10/18 15:25,2412417,0.9288,0.0494,1163,25.1,26.3,,0.0
2018-04-10T19:26:42Z,04/10/18 15:26,2412418,0.9005,0.0494,1157,25.1,26.2,,0.0
2018-04-10T19:27:45Z,04/10/18 15:27,2412419,0.8829,0.0494,1124,25.1,26.2,,0.0
2018-04-10T19:28:48Z,04/10/18 15:28,2412420,0.9252,0.0494,1110,25.1,26.2,,0.0
2018-04-10T19:29:52Z,04/10/18 15:29,2412421,0.95,0.0388,1127,25.1,26.1,,0.0
2018-04-10T19:30:55Z,04/10/18 15:30,2412422,0.9606,0.0565,1104,25.1,26.0,,0.0
2018-04-10T19:31:58Z,04/10/18 15:31,2412423,0.8617,0.0353,1089,25.1,26.0,,0.0
2018-04-10T19:33:01Z,04/10/18 15:33,2412424,0.8546,0.06,1092,25.1,25.9,,0.0
2018-04-10T19:34:04Z,04/10/18 15:34,2412425,0.8723,0.0424,1092,25.1,25.9,,0.0
2018-04-10T19:35:07Z,04/10/18 15:35,2412426,0.8687,0.0388,1078,25.1,25.8,,0.0
2018-04-10T19:36:10Z,04/10/18 15:36,2412427,0.8052,0.0424,1069,25.1,25.7,,0.0
2018-04-10T19:37:13Z,04/10/18 15:37,2412428,0.897,0.0283,1052,25.1,25.7,,0.0
2018-04-10T19:38:16Z,04/10/18 15:38,2412429,0.844,0.0388,1072,25.1,25.7,,0.0
2018-04-10T19:39:19Z,04/10/18 15:39,2412430,0.957,0.0353,1061,25.1,25.6,,0.0
2018-04-10T19:40:22Z,04/10/18 15:40,2412431,0.8687,0.0318,1032,25.1,25.6,,0.0
2018-04-10T19:41:25Z,04/10/18 15:41,2412432,0.8793,0.0283,1069,25.1,25.5,,0.0
2018-04-10T19:42:28Z,04/10/18 15:42,2412433,0.8016,0.0318,1061,25.1,25.4,,0.0
2018-04-10T19:43:31Z,04/10/18 15:43,2412434,0.8264,0.0318,1026,25.1,25.3,,0.0
2018-04-10T19:44:34Z,04/10/18 15:44,2412435,0.8334,0.0318,1035,25.1,25.3,,0.0
2018-04-10T19:45:37Z,04/10/18 15:45,2412436,0.8935,0.0283,1000,25.1,25.2,,0.0
2018-04-10T19:46:41Z,04/10/18 15:46,2412437,0.8122,0.0318,1015,25.1,25.2,,0.0
2018-04-10T19:47:44Z,04/10/18 15:47,2412438,0.8299,0.0283,972,25.1,25.2,,0.0
2018-04-10T19:48:47Z,04/10/18 15:48,2412439,0.7805,0.0283,992,25.1,25.1,,0.0
2018-04-10T19:49:50Z,04/10/18 15:49,2412440,0.8581,0.0212,986,25.1,25.1,,0.0
2018-04-10T19:50:53Z,04/10/18 15:50,2412441,0.8687,0.0212,943,25.1,25.0,,0.0
2018-04-10T19:51:56Z,04/10/18 15:51,2412442,0.8476,0.0283,940,25.1,25.0,,0.0
2018-04-10T19:52:59Z,04/10/18 15:52,2412443,0.8158,0.0177,954,25.1,24.9,,0.0
2018-04-10T19:54:02Z,04/10/18 15:54,2412444,0.844,0.0318,934,25.1,24.9,,0.0
2018-04-10T19:55:05Z,04/10/18 15:55,2412445,0.8864,0.0177,960,25.1,24.9,,0.0
2018-04-10T19:56:08Z,04/10/18 15:56,2412446,0.8864,0.0177,925,25.1,24.9,,0.0
2018-04-10T19:57:11Z,04/10/18 15:57,2412447,0.844,0.0212,902,25.1,24.8,,0.0
2018-04-10T19:58:14Z,04/10/18 15:58,2412448,0.7875,0.0212,908,25.1,24.8,,0.0
2018-04-10T19:59:17Z,04/10/18 15:59,2412449,0.8299,0.0247,925,25.1,24.8,,0.0
2018-04-10T20:00:20Z,04/10/18 16:00,2412450,0.7946,0.0212,887,25.1,24.7,,0.0
2018-04-10T20:01:23Z,04/10/18 16:01,2412451,0.7769,0.0212,875,25.1,24.6,,0.0
2018-04-10T20:03:30Z,04/10/18 16:03,2412452,0.7981,0.0141,916,25.1,24.5,,0.0
2018-04-10T20:04:33Z,04/10/18 16:04,2412453,0.8334,0.0177,870,25.1,24.4,,0.0
2018-04-10T20:05:36Z,04/10/18 16:05,2412454,0.7805,0.0177,853,25.1,24.4,,0.0
2018-04-10T20:06:39Z,04/10/18 16:06,2412455,0.7946,0.0247,836,25.1,24.4,,0.0
2018-04-10T20:07:42Z,04/10/18 16:07,2412456,0.837,0.0212,833,25.1,24.3,,0.0
2018-04-10T20:08:45Z,04/10/18 16:08,2412457,0.8158,0.0247,841,25.1,24.3,,0.0
2018-04-10T20:09:48Z,04/10/18 16:09,2412458,0.8511,0.0141,806,25.1,24.3,,0.0
2018-04-10T20:10:51Z,04/10/18 16:10,2412459,0.8334,0.0177,828,25.1,24.2,,0.0
2018-04-10T20:11:54Z,04/10/18 16:11,2412460,0.791,0.0212,814,25.1,24.2,,0.0
2018-04-10T20:12:57Z,04/10/18 16:12,2412461,0.784,0.0212,847,25.1,24.1,,0.0
2018-04-10T20:14:00Z,04/10/18 16:14,2412462,0.791,0.0247,812,25.1,24.1,,0.0
2018-04-10T20:15:03Z,04/10/18 16:15,2412463,0.7416,0.0212,814,25.1,23.9,,0.0
2018-04-10T20:16:06Z,04/10/18 16:16,2412464,0.8016,0.0247,815,25.2,23.9,,0.0
2018-04-10T20:17:09Z,04/10/18 16:17,2412465,0.7805,0.0247,810,25.2,23.9,,0.0
2018-04-10T20:18:12Z,04/10/18 16:18,2412466,0.8581,0.0177,791,25.2,23.8,,0.0
2018-04-10T20:19:15Z,04/10/18 16:19,2412467,0.8193,0.0141,807,25.3,23.7,,0.0
2018-04-10T20:20:19Z,04/10/18 16:20,2412468,0.7805,0.0141,786,25.3,23.7,,0.0
2018-04-10T20:21:22Z,04/10/18 16:21,2412469,0.7522,0.0141,746,25.4,23.6,,0.0
2018-04-10T20:22:25Z,04/10/18 16:22,2412470,0.8087,0.0177,764,25.4,23.4,,0.0
2018-04-10T20:23:28Z,04/10/18 16:23,2412471,0.784,0.0141,773,25.4,23.4,,0.0
2018-04-10T20:24:31Z,04/10/18 16:24,2412472,0.7734,0.0071,754,25.5,23.3,,0.0
2018-04-10T20:25:34Z,04/10/18 16:25,2412473,0.784,0.0177,734,25.4,23.3,,0.0
2018-04-10T20:26:37Z,04/10/18 16:26,2412474,0.7663,0.0106,729,25.5,23.2,,0.0
2018-04-10T20:27:40Z,04/10/18 16:27,2412475,0.7628,0.0106,749,25.4,23.2,,0.0
2018-04-10T20:28:43Z,04/10/18 16:28,2412476,0.7416,0.0283,734,25.4,23.2,,0.0
2018-04-10T20:29:46Z,04/10/18 16:29,2412477,0.7805,0.0141,739,25.4,23.2,,0.0
2018-04-10T20:30:49Z,04/10/18 16:30,2412478,0.7416,0.0141,739,25.4,23.2,,0.0
2018-04-10T20:31:52Z,04/10/18 16:31,2412479,0.731,0.0177,731,25.4,23.1,,0.0
2018-04-10T20:32:55Z,04/10/18 16:32,2412480,0.7557,0.0177,716,25.4,23.1,,0.0
2018-04-10T20:33:58Z,04/10/18 16:33,2412481,0.6992,0.0071,724,25.3,23.1,,0.0
2018-04-10T20:35:01Z,04/10/18 16:35,2412482,0.7028,0.0071,719,25.3,23.0,,0.0
2018-04-10T20:36:04Z,04/10/18 16:36,2412483,0.731,0.0141,724,25.3,23.0,,0.0
2018-04-10T20:37:08Z,04/10/18 16:37,2412484,0.7275,0.0141,711,25.3,23.0,,0.0
2018-04-10T20:38:11Z,04/10/18 16:38,2412485,0.7699,0.0177,706,25.3,23.0,,0.0
2018-04-10T20:39:14Z,04/10/18 16:39,2412486,0.7628,0.0141,698,25.2,23.0,,0.0
2018-04-10T20:40:17Z,04/10/18 16:40,2412487,0.7663,0.0247,688,25.2,22.9,,0.0
2018-04-10T20:41:20Z,04/10/18 16:41,2412488,0.6604,0.0141,696,25.2,23.0,,0.0
2018-04-10T20:42:23Z,04/10/18 16:42,2412489,0.6816,0.0071,673,25.2,22.9,,0.0
2018-04-10T20:44:29Z,04/10/18 16:44,2412490,0.6922,0.0141,688,25.2,22.9,,0.0
2018-04-10T20:45:32Z,04/10/18 16:45,2412491,0.6498,0.0106,685,25.2,22.9,,0.0
2018-04-10T20:46:35Z,04/10/18 16:46,2412492,0.7098,0.0071,666,25.2,22.9,,0.0
2018-04-10T20:47:38Z,04/10/18 16:47,2412493,0.7381,0.0212,676,25.2,22.9,,0.0
2018-04-10T20:48:41Z,04/10/18 16:48,2412494,0.6604,0.0177,669,25.2,22.8,,0.0
2018-04-10T20:49:44Z,04/10/18 16:49,2412495,0.7487,0.0177,638,25.2,22.8,,0.0
2018-04-10T20:50:47Z,04/10/18 16:50,2412496,0.7204,0.0247,676,25.3,22.7,,0.0
2018-04-10T20:51:50Z,04/10/18 16:51,2412497,0.7381,0.0177,666,25.3,22.7,,0.0
2018-04-10T20:52:53Z,04/10/18 16:52,2412498,0.724,0.0212,671,25.3,22.6,,0.0
2018-04-10T20:53:57Z,04/10/18 16:53,2412499,0.7345,0.0212,678,25.3,22.6,,0.0
2018-04-10T20:55:00Z,04/10/18 16:55,2412500,0.678,0.0071,664,25.3,22.5,,0.0
2018-04-10T20:56:03Z,04/10/18 16:56,2412501,0.6922,0.0141,624,25.4,22.5,,0.0
2018-04-10T20:57:06Z,04/10/18 16:57,2412502,0.7134,0.0177,659,25.4,22.4,,0.0
2018-04-10T20:58:09Z,04/10/18 16:58,2412503,0.7451,0.0141,658,25.4,22.4,,0.0
2018-04-10T20:59:12Z,04/10/18 16:59,2412504,0.6639,0.0106,622,25.4,22.4,,0.0
2018-04-10T21:00:15Z,04/10/18 17:00,2412505,0.6816,0.0177,632,25.4,22.4,,0.0
2018-04-10T21:01:18Z,04/10/18 17:01,2412506,0.7381,0.0035,615,25.4,22.4,,0.0
2018-04-10T21:02:21Z,04/10/18 17:02,2412507,0.7169,0.0106,648,25.5,22.3,,0.0
2018-04-10T21:03:24Z,04/10/18 17:03,2412508,0.7663,0.0141,636,25.5,22.2,,0.0
2018-04-10T21:05:30Z,04/10/18 17:05,2412509,0.7769,0.0177,592,25.5,22.2,,0.0
2018-04-10T21:06:33Z,04/10/18 17:06,2412510,0.724,0.0106,624,25.5,22.1,,0.0
2018-04-10T21:07:36Z,04/10/18 17:07,2412511,0.6922,0.0141,624,25.5,22.1,,0.0
2018-04-10T21:08:39Z,04/10/18 17:08,2412512,0.6674,0.0141,610,25.5,22.1,,0.0
2018-04-10T21:09:42Z,04/10/18 17:09,2412513,0.6992,0.0177,601,25.5,22.0,,0.0
2018-04-10T21:10:45Z,04/10/18 17:10,2412514,0.671,0.0141,608,25.5,22.0,,0.0
2018-04-10T21:11:49Z,04/10/18 17:11,2412515,0.7098,0.0106,590,25.4,22.0,,0.0
2018-04-10T21:12:52Z,04/10/18 17:12,2412516,0.6922,0.0141,588,25.4,21.9,,0.0
2018-04-10T21:13:55Z,04/10/18 17:13,2412517,0.7416,0.0106,620,25.4,21.9,,0.0
2018-04-10T21:14:58Z,04/10/18 17:14,2412518,0.7063,0.0177,613,25.4,21.9,,0.0
2018-04-10T21:16:01Z,04/10/18 17:16,2412519,0.7098,0.0106,608,25.4,21.9,,0.0
2018-04-10T21:17:04Z,04/10/18 17:17,2412520,0.6851,0.0071,599,25.4,21.9,,0.0
2018-04-10T21:18:07Z,04/10/18 17:18,2412521,0.6145,0.0106,583,25.4,21.9,,0.0
2018-04-10T21:19:10Z,04/10/18 17:19,2412522,0.6498,0.0071,594,25.4,21.9,,0.0
2018-04-10T21:20:13Z,04/10/18 17:20,2412523,0.6463,0.0106,610,25.4,21.8,,0.0
2018-04-10T21:21:16Z,04/10/18 17:21,2412524,0.6674,0.0177,586,25.4,21.8,,0.0
2018-04-10T21:22:19Z,04/10/18 17:22,2412525,0.6674,0.0141,590,25.4,21.8,,0.0
2018-04-10T21:23:22Z,04/10/18 17:23,2412526,0.6745,0.0106,612,25.4,21.7,,0.0
2018-04-10T21:24:25Z,04/10/18 17:24,2412527,0.7451,0.0106,577,25.4,21.7,,0.0
2018-04-10T21:25:28Z,04/10/18 17:25,2412528,0.6357,0.0177,588,25.4,21.7,,0.0
2018-04-10T21:26:31Z,04/10/18 17:26,2412529,0.724,0.0106,553,25.4,21.7,,0.0
2018-04-10T21:27:34Z,04/10/18 17:27,2412530,0.7063,0.0212,566,25.4,21.6,,0.0
2018-04-10T21:28:38Z,04/10/18 17:28,2412531,0.7028,0.0141,594,25.4,21.6,,0.0
2018-04-10T21:29:41Z,04/10/18 17:29,2412532,0.6957,0.0106,581,25.4,21.6,,0.0
2018-04-10T21:30:44Z,04/10/18 17:30,2412533,0.7487,0.0141,564,25.4,21.6,,0.0
2018-04-10T21:31:47Z,04/10/18 17:31,2412534,0.678,0.0177,564,25.4,21.6,,0.0
2018-04-10T21:32:50Z,04/10/18 17:32,2412535,0.6639,0.0106,579,25.4,21.6,,0.0
2018-04-10T21:33:53Z,04/10/18 17:33,2412536,0.6674,0.0106,549,25.4,21.5,,0.0
2018-04-10T21:34:56Z,04/10/18 17:34,2412537,0.7169,0.0071,564,25.5,21.5,,0.0
2018-04-10T21:35:59Z,04/10/18 17:35,2412538,0.7028,0.0141,562,25.5,21.4,,0.0
2018-04-10T21:37:02Z,04/10/18 17:37,2412539,0.6639,0.0141,557,25.5,21.4,,0.0
2018-04-10T21:38:05Z,04/10/18 17:38,2412540,0.6569,0.0141,568,25.5,21.3,,0.0
2018-04-10T21:39:08Z,04/10/18 17:39,2412541,0.6957,0.0177,549,25.5,21.3,,0.0
2018-04-10T21:40:11Z,04/10/18 17:40,2412542,0.678,0.0035,549,25.5,21.3,,0.0
2018-04-10T21:41:14Z,04/10/18 17:41,2412543,0.6851,0.0106,562,25.6,21.2,,0.0
2018-04-10T21:42:17Z,04/10/18 17:42,2412544,0.6604,0.0071,541,25.6,21.2,,0.0
2018-04-10T21:43:20Z,04/10/18 17:43,2412545,0.6957,0.0141,562,25.6,21.2,,0.0
2018-04-10T21:44:23Z,04/10/18 17:44,2412546,0.6569,0.0071,549,25.5,21.1,,0.0
2018-04-10T21:46:30Z,04/10/18 17:46,2412547,0.6427,0.0106,545,25.5,21.1,,0.0
2018-04-10T21:47:33Z,04/10/18 17:47,2412548,0.6463,0.0106,549,25.5,21.1,,0.0
2018-04-10T21:48:36Z,04/10/18 17:48,2412549,0.7169,0.0071,518,25.5,21.1,,0.0
2018-04-10T21:49:39Z,04/10/18 17:49,2412550,0.6745,0.0177,560,25.5,21.1,,0.0
2018-04-10T21:50:42Z,04/10/18 17:50,2412551,0.7381,0.0106,530,25.5,21.1,,0.0
2018-04-10T21:51:45Z,04/10/18 17:51,2412552,0.731,0.0141,530,25.5,21.0,,0.0
2018-04-10T21:52:48Z,04/10/18 17:52,2412553,0.7134,0.0106,518,25.5,21.0,,0.0
2018-04-10T21:53:51Z,04/10/18 17:53,2412554,0.7275,0.0141,538,25.5,21.0,,0.0
2018-04-10T21:54:54Z,04/10/18 17:54,2412555,0.7557,0.0141,518,25.5,21.0,,0.0
2018-04-10T21:55:57Z,04/10/18 17:55,2412556,0.7416,0.0106,528,25.4,21.0,,0.0
2018-04-10T21:57:00Z,04/10/18 17:57,2412557,0.7663,0.0106,524,25.4,20.9,,0.0
2018-04-10T21:58:03Z,04/10/18 17:58,2412558,0.7204,0.0106,534,25.4,20.9,,0.0
2018-04-10T21:59:06Z,04/10/18 17:59,2412559,0.7275,0.0106,521,25.4,20.9,,0.0
2018-04-10T22:00:09Z,04/10/18 18:00,2412560,0.7805,0.0141,525,25.4,20.9,,0.0
2018-04-10T22:01:12Z,04/10/18 18:01,2412561,0.8334,0.0247,527,25.4,20.9,,0.0
2018-04-10T22:02:16Z,04/10/18 18:02,2412562,0.8122,0.0106,507,25.4,20.9,,0.0
2018-04-10T22:03:19Z,04/10/18 18:03,2412563,0.8193,0.0141,521,25.4,20.9,,0.0
2018-04-10T22:04:22Z,04/10/18 18:04,2412564,0.8087,0.0071,519,25.4,20.8,,0.0
2018-04-10T22:05:25Z,04/10/18 18:05,2412565,0.784,0.0071,503,25.4,20.8,,0.0
2018-04-10T22:06:28Z,04/10/18 18:06,2412566,0.7557,0.0141,505,25.4,20.8,,0.0
2018-04-10T22:07:31Z,04/10/18 18:07,2412567,0.784,0.0141,507,25.4,20.8,,0.0
2018-04-10T22:08:34Z,04/10/18 18:08,2412568,0.7275,0.0035,507,25.3,20.8,,0.0
2018-04-10T22:09:37Z,04/10/18 18:09,2412569,0.6922,0.0106,504,25.3,20.9,,0.0
2018-04-10T22:10:40Z,04/10/18 18:10,2412570,0.7875,0.0106,504,25.2,20.9,,0.0
2018-04-10T22:11:43Z,04/10/18 18:11,2412571,0.8193,0.0071,517,25.2,20.9,,0.0
2018-04-10T22:12:46Z,04/10/18 18:12,2412572,0.7946,0.0177,519,25.1,21.0,,0.0
2018-04-10T22:13:49Z,04/10/18 18:13,2412573,0.784,0.0071,512,25.1,21.1,,0.0
2018-04-10T22:14:52Z,04/10/18 18:14,2412574,0.8016,0.0141,532,25.1,21.1,,0.0
2018-04-10T22:15:55Z,04/10/18 18:15,2412575,0.7275,0.0106,504,25.0,21.1,,0.0
2018-04-10T22:16:58Z,04/10/18 18:16,2412576,0.7451,0.0141,503,25.0,21.1,,0.0
2018-04-10T22:18:01Z,04/10/18 18:18,2412577,0.784,0.0177,518,25.0,21.1,,0.0
2018-04-10T22:19:05Z,04/10/18 18:19,2412578,0.7628,0.0106,520,24.9,21.2,,0.0
2018-04-10T22:20:08Z,04/10/18 18:20,2412579,0.7345,0.0106,513,24.8,21.2,,0.0
2018-04-10T22:21:11Z,04/10/18 18:21,2412580,0.731,0.0106,519,24.8,21.3,,0.0
2018-04-10T22:22:14Z,04/10/18 18:22,2412581,0.7522,0.0141,531,24.8,21.3,,0.0
2018-04-10T22:23:17Z,04/10/18 18:23,2412582,0.7381,0.0071,533,24.7,21.4,,0.0
2018-04-10T22:24:20Z,04/10/18 18:24,2412583,0.7628,0.0106,523,24.7,21.4,,0.0
2018-04-10T22:25:23Z,04/10/18 18:25,2412584,0.678,0.0071,502,24.6,21.5,,0.0
2018-04-10T22:27:29Z,04/10/18 18:27,2412585,0.8193,0.0071,517,24.5,21.5,,0.0
2018-04-10T22:28:32Z,04/10/18 18:28,2412586,0.8052,0.0141,522,24.5,21.5,,0.0
2018-04-10T22:29:35Z,04/10/18 18:29,2412587,0.791,0.0106,520,24.4,21.5,,0.0
2018-04-10T22:30:38Z,04/10/18 18:30,2412588,0.784,0.0106,518,24.4,21.5,,0.0
2018-04-10T22:31:41Z,04/10/18 18:31,2412589,0.7663,0.0071,494,24.4,21.6,,0.0
2018-04-10T22:32:44Z,04/10/18 18:32,2412590,0.7593,0.0247,508,24.4,21.6,,0.0
2018-04-10T22:33:47Z,04/10/18 18:33,2412591,0.8158,0.0141,504,24.4,21.6,,0.0
2018-04-10T22:34:50Z,04/10/18 18:34,2412592,0.7734,0.0141,509,24.4,21.7,,0.0
2018-04-10T22:35:54Z,04/10/18 18:35,2412593,0.7451,0.0177,507,24.3,21.7,,0.0
2018-04-10T22:36:57Z,04/10/18 18:36,2412594,0.7522,0.0177,507,24.3,21.7,,0.0
2018-04-10T22:38:00Z,04/10/18 18:38,2412595,0.784,0.0141,523,24.3,21.7,,0.0
2018-04-10T22:39:03Z,04/10/18 18:39,2412596,0.7169,0.0141,527,24.3,21.7,,0.0
2018-04-10T22:40:06Z,04/10/18 18:40,2412597,0.7522,0.0106,501,24.2,21.8,,0.0
2018-04-10T22:41:09Z,04/10/18 18:41,2412598,0.7204,0.0247,515,24.2,21.8,,0.0
2018-04-10T22:42:12Z,04/10/18 18:42,2412599,0.8228,0.0177,529,24.2,21.8,,0.0
2018-04-10T22:43:15Z,04/10/18 18:43,2412600,0.8758,0.0141,535,24.1,21.8,,0.0
2018-04-10T22:44:18Z,04/10/18 18:44,2412601,0.8829,0.0212,529,24.1,21.8,,0.0
2018-04-10T22:45:21Z,04/10/18 18:45,2412602,0.9606,0.0212,519,24.1,21.8,,0.0
2018-04-10T22:46:24Z,04/10/18 18:46,2412603,1.0065,0.0247,519,24.0,21.8,,0.0
2018-04-10T22:48:30Z,04/10/18 18:48,2412604,0.95,0.0177,531,24.0,21.9,,0.0
2018-04-10T22:49:33Z,04/10/18 18:49,2412605,0.8687,0.0141,527,24.0,21.9,,0.0
2018-04-10T22:50:36Z,04/10/18 18:50,2412606,0.8617,0.0212,522,23.9,21.9,,0.0
2018-04-10T22:51:39Z,04/10/18 18:51,2412607,0.8829,0.0212,532,23.9,21.9,,0.0
2018-04-10T22:52:43Z,04/10/18 18:52,2412608,0.9076,0.0212,522,23.9,21.9,,0.0
2018-04-10T22:53:46Z,04/10/18 18:53,2412609,0.9041,0.0141,520,23.9,21.9,,0.0
2018-04-10T22:54:49Z,04/10/18 18:54,2412610,0.8864,0.0177,526,23.8,21.9,,0.0
2018-04-10T22:55:52Z,04/10/18 18:55,2412611,0.8687,0.0141,520,23.8,21.9,,0.0
2018-04-10T22:56:55Z,04/10/18 18:56,2412612,0.9676,0.0353,514,23.8,21.8,,0.0
2018-04-10T22:57:58Z,04/10/18 18:57,2412613,1.0453,0.0247,516,23.8,21.8,,0.0
2018-04-10T22:59:01Z,04/10/18 18:59,2412614,0.9923,0.0212,518,23.8,21.8,,0.0
2018-04-10T23:00:04Z,04/10/18 19:00,2412615,0.9994,0.0177,504,23.8,21.8,,0.0
2018-04-10T23:01:07Z,04/10/18 19:01,2412616,1.01,0.0177,512,23.8,21.8,,0.0
2018-04-10T23:02:10Z,04/10/18 19:02,2412617,0.9606,0.0283,506,23.8,21.9,,0.0
2018-04-10T23:03:13Z,04/10/18 19:03,2412618,1.0206,0.0283,506,23.8,21.9,,0.0
2018-04-10T23:04:16Z,04/10/18 19:04,2412619,0.9853,0.0141,482,23.8,21.9,,0.0
2018-04-10T23:05:19Z,04/10/18 19:05,2412620,1.0736,0.0177,496,23.7,21.9,,0.0
2018-04-10T23:06:22Z,04/10/18 19:06,2412621,1.0912,0.0283,510,23.7,21.9,,0.0
2018-04-10T23:08:28Z,04/10/18 19:08,2412622,1.1548,0.0141,488,23.7,21.8,,0.0
2018-04-10T23:09:32Z,04/10/18 19:09,2412623,1.0948,0.0283,467,23.6,21.8,,0.0
2018-04-10T23:10:35Z,04/10/18 19:10,2412624,1.0559,0.0177,471,23.6,21.8,,0.0
2018-04-10T23:11:38Z,04/10/18 19:11,2412625,1.0029,0.0283,494,23.6,21.9,,0.0
2018-04-10T23:12:41Z,04/10/18 19:12,2412626,1.0948,0.0283,477,23.6,21.9,,0.0
2018-04-10T23:13:44Z,04/10/18 19:13,2412627,1.1301,0.0388,475,23.6,21.9,,0.0
2018-04-10T23:14:47Z,04/10/18 19:14,2412628,1.0453,0.0247,491,23.6,21.9,,0.0
2018-04-10T23:15:50Z,04/10/18 19:15,2412629,1.0806,0.0177,473,23.6,21.9,,0.0
2018-04-10T23:16:53Z,04/10/18 19:16,2412630,1.1407,0.0247,495,23.5,21.9,,0.0
2018-04-10T23:17:56Z,04/10/18 19:17,2412631,1.0347,0.0177,499,23.5,21.9,,0.0
2018-04-10T23:18:59Z,04/10/18 19:18,2412632,1.0877,0.0247,475,23.5,21.9,,0.0
2018-04-10T23:20:02Z,04/10/18 19:20,2412633,1.2148,0.0212,495,23.5,21.9,,0.0
2018-04-10T23:21:05Z,04/10/18 19:21,2412634,1.183,0.0318,479,23.5,21.9,,0.0
2018-04-10T23:22:08Z,04/10/18 19:22,2412635,1.2855,0.0318,479,23.5,21.9,,0.0
2018-04-10T23:23:11Z,04/10/18 19:23,2412636,1.176,0.0353,483,23.4,21.9,,0.0
2018-04-10T23:24:14Z,04/10/18 19:24,2412637,1.1795,0.0283,483,23.4,21.9,,0.0
2018-04-10T23:25:17Z,04/10/18 19:25,2412638,1.1619,0.0283,485,23.4,21.9,,0.0
2018-04-10T23:26:21Z,04/10/18 19:26,2412639,1.1724,0.0283,463,23.4,21.9,,0.0
2018-04-10T23:27:24Z,04/10/18 19:27,2412640,1.2431,0.0247,487,23.4,21.9,,0.0
2018-04-10T23:29:30Z,04/10/18 19:29,2412641,1.1371,0.0141,489,23.4,22.0,,0.0
2018-04-10T23:30:33Z,04/10/18 19:30,2412642,1.1936,0.0212,497,23.3,22.0,,0.0
2018-04-10T23:31:36Z,04/10/18 19:31,2412643,1.183,0.0247,501,23.3,22.0,,0.0
2018-04-10T23:32:39Z,04/10/18 19:32,2412644,1.1089,0.0212,489,23.3,22.0,,0.0
2018-04-10T23:33:42Z,04/10/18 19:33,2412645,1.1972,0.0177,467,23.3,22.0,,0.0
2018-04-10T23:34:45Z,04/10/18 19:34,2412646,1.1407,0.0247,487,23.3,22.0,,0.0
2018-04-10T23:35:48Z,04/10/18 19:35,2412647,1.1619,0.0283,454,23.3,22.0,,0.0
2018-04-10T23:36:51Z,04/10/18 19:36,2412648,1.2078,0.0212,501,23.3,22.0,,0.0
2018-04-10T23:37:54Z,04/10/18 19:37,2412649,1.2431,0.0247,489,23.2,22.0,,0.0